DateTimeUTC,F1_A11,F1_S11,BsB_S11,BsG_S11,BsR_S11,BbsB_S11,BbsG_S11,BbsR_S11,BaB_A11,BaG_A11,BaR_A11,Tu_S11,T_S11,Uu_S11,U_S11,P_S11,T1_A11
2021-09-19T00:00:00Z,00000200,21000000,,,,,,,-000.39,0000.09,-000.26,17.7,25.3,,00.0,0655.9,31.0
2021-09-19T00:01:00Z,00000200,21000000,,,,,,,0000.35,0000.06,0000.22,17.7,25.3,,00.0,0655.9,31.0
2021-09-19T00:02:00Z,00000200,21000000,,,,,,,0000.47,0000.51,0000.47,17.7,25.3,,00.0,0655.9,31.0
2021-09-19T00:03:00Z,00000200,61000000,,,,,,,0000.65,0000.81,0000.62,17.7,25.3,,00.0,0655.9,31.0
2021-09-19T00:04:00Z,00000200,41000000,0002.19,0001.87,0001.32,0000.13,0000.49,-000.13,0000.97,0000.81,0000.76,18.2,25.2,,00.0,0656.8,31.0
2021-09-19T00:05:00Z,00000200,01000000,0002.82,0001.89,0001.32,0000.69,0000.07,-000.13,0000.99,0000.72,0000.43,18.3,25.2,,00.0,0656.9,31.0
2021-09-19T00:06:00Z,00000200,01000000,0002.69,0002.14,0001.39,0000.18,0000.33,0000.52,0000.47,0000.64,0000.94,18.4,25.2,,00.0,0656.9,31.1
2021-09-19T00:07:00Z,00000200,01000000,0002.64,0001.87,0001.30,0000.42,-000.02,-000.17,0001.16,0000.70,0000.17,18.5,25.3,,00.0,0656.9,31.1
2021-09-19T00:08:00Z,00000200,01000000,0002.73,0002.01,0001.27,-000.64,0000.12,0000.17,0000.49,0000.73,0000.72,18.6,25.3,,00.0,0656.9,31.1
2021-09-19T00:09:00Z,00000200,01000000,0002.93,0002.19,0001.39,0000.26,0000.21,0000.24,0000.95,0001.08,0000.63,18.7,25.3,,00.0,0657.0,31.1
2021-09-19T00:10:00Z,00000200,01000000,0003.13,0002.11,0001.68,0000.21,0000.36,0000.16,0000.85,0000.37,0000.45,18.8,25.4,,00.0,0657.0,31.1
2021-09-19T00:11:00Z,00000200,01000000,0002.90,0001.96,0001.51,-000.09,0000.30,0000.15,-000.11,0000.22,-000.01,18.8,25.4,,00.0,0657.0,31.1
2021-09-19T00:12:00Z,00000200,01000000,0003.80,0002.39,0001.04,-000.26,0000.38,-000.04,-000.24,-000.29,-000.24,18.8,25.3,,00.0,0656.9,31.1
2021-09-19T00:13:00Z,00000200,01000000,0002.85,0001.99,0001.46,0000.12,0000.27,0000.27,0001.00,0000.79,0000.53,18.7,25.4,,00.0,0657.0,31.1
2021-09-19T00:14:00Z,00000200,01000000,0002.76,0001.86,0001.16,0000.70,0000.48,-000.07,0000.51,0000.37,0000.74,18.6,25.3,,00.0,0657.0,31.0
2021-09-19T00:15:00Z,00000200,01000000,0003.31,0001.87,0001.29,0000.05,0000.15,0000.21,0000.74,0000.75,0000.22,18.6,25.3,,00.0,0656.9,31.0
2021-09-19T00:16:00Z,00000200,01000000,0003.12,0002.02,0001.45,0000.49,0000.24,-000.06,0000.14,-000.13,0000.30,18.6,25.3,,00.0,0657.0,31.0
2021-09-19T00:17:00Z,00000200,01000000,0003.30,0002.37,0001.43,0000.21,0000.24,0000.00,0000.32,0000.63,0000.23,18.6,25.3,,00.0,0657.0,31.1
2021-09-19T00:18:00Z,00000200,01000000,0002.32,0001.86,0001.51,0000.40,0000.06,0000.26,0000.26,0000.48,0000.20,18.7,25.3,,00.0,0657.0,31.1
2021-09-19T00:19:00Z,00000200,01000000,0003.35,0002.15,0000.89,0000.44,0000.48,0000.28,0000.66,0000.40,0000.55,18.8,25.4,,00.0,0657.0,31.1
2021-09-19T00:20:00Z,00000200,01000000,0003.07,0001.87,0001.03,0000.55,0000.15,0000.08,0000.99,0000.86,0000.30,18.9,25.4,,00.0,0657.0,31.1
2021-09-19T00:21:00Z,00000200,01000000,0003.37,0001.88,0001.51,-000.15,-000.16,0000.18,0000.34,0000.47,0000.37,18.9,25.5,,00.0,0657.0,31.1
2021-09-19T00:22:00Z,00000200,01000000,0003.11,0001.92,0001.25,0000.51,0000.24,0000.07,-000.13,-000.33,-000.23,19.1,25.5,,00.0,0657.0,31.1
2021-09-19T00:23:00Z,00000200,01000000,0002.57,0002.14,0001.24,0000.52,0000.41,0000.29,-001.50,-001.13,-000.51,19.1,25.6,,00.0,0657.1,31.1
2021-09-19T00:24:00Z,00000200,01000000,0001.67,0001.64,0000.74,0000.55,0000.50,-000.01,-000.39,-000.76,-000.78,19.1,25.6,,00.0,0657.1,31.1
2021-09-19T00:25:00Z,00000200,01000000,0002.85,0001.98,0001.31,-000.05,0000.27,0000.07,0000.47,0000.90,0000.30,19.1,25.6,,00.0,0657.1,31.1
2021-09-19T00:26:00Z,00000200,01000000,0002.13,0001.64,0001.35,0000.22,-000.07,0000.51,-001.33,-001.38,-000.54,19.0,25.6,,00.0,0657.1,31.1
2021-09-19T00:27:00Z,00000200,01000000,0002.72,0001.79,0001.06,0000.22,0000.19,-000.32,0001.30,0001.17,0000.99,18.9,25.5,,00.0,0657.0,31.1
2021-09-19T00:28:00Z,00000200,01000000,0003.24,0001.81,0001.43,0000.22,0000.17,-000.04,0000.94,0000.60,0000.11,18.8,25.5,,00.0,0657.0,31.0
2021-09-19T00:29:00Z,00000200,01000000,0002.95,0001.71,0001.27,0000.16,0000.06,-000.00,-001.22,-001.09,-000.39,18.8,25.4,,00.0,0657.1,31.0
2021-09-19T00:30:00Z,00000200,01000000,0002.48,0001.79,0001.34,0000.08,0000.28,0000.02,0001.78,0001.72,0001.19,18.7,25.4,,00.0,0657.0,31.0
2021-09-19T00:31:00Z,00000200,01000000,0002.87,0002.37,0001.66,0000.42,0000.19,0000.37,0000.70,0000.95,0000.40,18.7,25.4,,00.0,0657.0,31.0
2021-09-19T00:32:00Z,00000200,01000000,0002.47,0002.13,0001.18,0000.13,0000.21,0000.12,0000.24,-000.24,0000.19,18.8,25.4,,00.0,0657.1,31.1
2021-09-19T00:33:00Z,00000200,01000000,0002.69,0001.71,0000.99,-000.03,0000.26,0000.16,-000.47,-000.23,-000.32,18.8,25.5,,00.0,0657.1,31.1
2021-09-19T00:34:00Z,00000200,01000000,0002.94,0002.13,0001.45,0000.25,0000.28,0000.19,0000.74,0000.58,0000.15,18.9,25.5,,00.0,0657.1,31.1
2021-09-19T00:35:00Z,00000200,01000000,0002.13,0002.02,0001.36,0000.64,0000.16,-000.06,0000.82,0000.80,0000.79,19.0,25.5,,00.0,0657.0,31.1
2021-09-19T00:36:00Z,00000200,01000000,0003.31,0001.67,0001.28,-000.17,0000.39,-000.19,-000.09,0000.57,0000.38,19.0,25.6,,00.0,0657.1,31.1
2021-09-19T00:37:00Z,00000200,01000000,0002.97,0001.94,0001.17,0000.45,0000.25,0000.10,-000.28,-000.94,-000.28,19.0,25.6,,00.0,0657.1,31.1
2021-09-19T00:38:00Z,00000200,01000000,0002.71,0002.05,0001.27,0000.37,0000.38,0000.29,0000.11,0000.26,-000.07,19.0,25.6,,00.0,0657.1,31.1
2021-09-19T00:39:00Z,00000200,01000000,0003.43,0002.11,0000.93,-000.43,0000.27,0000.09,0000.89,0000.87,0000.51,18.9,25.5,,00.0,0657.1,31.1
2021-09-19T00:40:00Z,00000200,01000000,0002.84,0001.88,0001.04,0000.54,0000.47,-000.65,0000.27,0000.51,0000.29,18.8,25.5,,00.0,0657.1,31.0
2021-09-19T00:41:00Z,00000200,01000000,0002.45,0001.97,0001.46,0000.65,0000.43,0000.23,0001.21,0000.69,0000.81,18.7,25.5,,00.0,0657.1,31.0
2021-09-19T00:42:00Z,00000200,01000000,0003.39,0002.00,0001.11,0000.76,0000.43,-000.24,0000.28,0000.62,0000.35,18.6,25.4,,00.0,0657.1,31.0
2021-09-19T00:43:00Z,00000200,01000000,0002.13,0001.74,0001.37,0000.44,0000.25,0000.29,0000.38,-000.32,-000.03,18.6,25.4,,00.0,0657.0,31.0
2021-09-19T00:44:00Z,00000200,01000000,0002.34,0001.68,0001.03,-000.07,0000.01,-000.08,0000.48,0000.66,0000.17,18.5,25.3,,00.0,0657.0,31.0
2021-09-19T00:45:00Z,00000200,01000000,0002.92,0002.16,0001.20,0000.50,0000.22,0000.37,0000.16,-000.01,0000.01,18.4,25.3,,00.0,0657.1,31.0
2021-09-19T00:46:00Z,00000200,01000000,0002.52,0001.93,0001.42,0000.22,0000.19,0000.17,-000.07,0000.57,0000.41,18.4,25.3,,00.0,0657.1,31.0
2021-09-19T00:47:00Z,00000200,01000000,0002.96,0001.45,0001.19,0000.96,0000.18,-000.01,0000.21,-000.06,-000.08,18.5,25.3,,00.0,0657.1,31.0
2021-09-19T00:48:00Z,00000200,01000000,0003.25,0002.13,0001.20,0000.08,0000.42,-000.07,-000.19,0000.35,-000.11,18.6,25.3,,00.0,0657.1,31.0
2021-09-19T00:49:00Z,00000200,01000000,0003.23,0001.63,0001.08,0000.43,0000.38,0000.08,0000.75,0000.28,0000.67,18.7,25.4,,00.0,0657.1,31.1
2021-09-19T00:50:00Z,00000200,01000000,0002.69,0001.90,0000.83,0000.37,0000.03,-000.18,0000.71,0000.59,0000.34,18.7,25.4,,00.0,0657.1,31.1
2021-09-19T00:51:00Z,00000200,01000000,0001.93,0001.69,0001.47,0000.28,0000.15,0000.15,0000.16,0000.59,0000.43,18.8,25.5,,00.0,0657.1,31.1
2021-09-19T00:52:00Z,00000200,01000000,0003.04,0001.92,0001.03,0000.41,0000.06,0000.14,0000.93,0000.14,0000.19,18.9,25.5,,00.0,0657.1,31.1
2021-09-19T00:53:00Z,00000200,01000000,0002.87,0001.96,0001.32,0000.41,0000.18,0000.28,0000.42,0000.88,0000.71,18.9,25.5,,00.0,0657.1,31.1
2021-09-19T00:54:00Z,00000200,01000000,0003.18,0001.95,0001.12,-000.14,0000.24,0000.29,0001.53,0001.26,0000.98,18.8,25.5,,00.0,0657.1,31.1
2021-09-19T00:55:00Z,00000200,01000000,0002.80,0002.11,0001.28,-000.14,0000.13,0000.34,0001.51,0001.21,0001.05,18.8,25.5,,00.0,0657.1,31.1
2021-09-19T00:56:00Z,00000200,01000000,0002.94,0002.24,0000.98,-000.20,0000.41,-000.12,0001.09,0000.88,0000.74,18.7,25.4,,00.0,0657.1,31.0
2021-09-19T00:57:00Z,00000200,41000000,,,,,,,0002.99,0002.68,0001.93,18.7,25.5,,00.0,0657.3,31.0
2021-09-19T00:58:00Z,00000200,61000000,,,,,,,-000.91,-000.62,-000.82,18.1,25.5,,00.0,0656.1,31.0
2021-09-19T00:59:00Z,00000200,21000000,,,,,,,-000.33,-000.32,-000.04,18.1,25.6,,00.0,0656.1,31.0
